| time (UTC) | temp C | wind direction | speed KPH | gust KPH | rain 1hr cm | rain 24hr cm | rain mn cm | humidity % | barometer mb |
| 20260506192459 | 15 | 190 | 1.6 | 1.6 | 0.00 | 1.50 | 1.50 | 99 | 1007.6 |
| 20260506191458 | 15 | 176 | 3.2 | 4.8 | 0.00 | 1.50 | 1.50 | 99 | 1007.5 |
| 20260506190457 | 15 | 193 | 4.8 | 4.8 | 0.00 | 1.50 | 1.50 | 99 | 1007.7 |
| 20260506185457 | 15 | 170 | 3.2 | 4.8 | 0.30 | 1.50 | 1.50 | 99 | 1008.0 |
| 20260506184457 | 15 | 169 | 1.6 | 1.6 | 0.18 | 1.45 | 1.45 | 99 | 1008.0 |
| 20260506183455 | 15 | 148 | 1.6 | 1.6 | 0.13 | 1.42 | 1.42 | 99 | 1008.2 |
| 20260506182455 | 15 | 175 | 1.6 | 3.2 | 0.30 | 1.40 | 1.40 | 99 | 1008.1 |
| 20260506181451 | 15 | 172 | 0.0 | 1.6 | 0.18 | 1.35 | 1.35 | 99 | 1008.0 |
| 20260506180449 | 15 | 176 | 0.0 | 0.0 | 0.30 | 1.32 | 1.32 | 99 | 1008.2 |
| 20260506175449 | 15 | 208 | 1.6 | 1.6 | 0.30 | 1.27 | 1.27 | 99 | 1008.2 |
| 20260506174449 | 15 | 191 | 1.6 | 3.2 | 0.43 | 1.22 | 1.22 | 99 | 1008.3 |
| 20260506173449 | 15 | 172 | 3.2 | 3.2 | 0.48 | 1.17 | 1.17 | 99 | 1008.5 |
| 20260506172449 | 15 | 174 | 0.0 | 1.6 | 0.30 | 1.09 | 1.09 | 99 | 1008.7 |
| 20260506171449 | 15 | 153 | 1.6 | 3.2 | 0.13 | 1.04 | 1.04 | 99 | 1008.7 |
| 20260506170449 | 15 | 177 | 0.0 | 1.6 | 0.30 | 1.02 | 1.02 | 99 | 1008.4 |
| 20260506165446 | 15 | 188 | 1.6 | 1.6 | 0.61 | 0.97 | 0.97 | 99 | 1008.3 |
| 20260506164444 | 14 | 162 | 4.8 | 8.0 | 0.48 | 0.89 | 0.89 | 99 | 1008.4 |
| 20260506163443 | 14 | 153 | 1.6 | 3.2 | 0.00 | 0.81 | 0.81 | 99 | 1008.4 |
| 20260506162442 | 14 | 167 | 4.8 | 8.0 | 0.13 | 0.81 | 0.81 | 99 | 1008.5 |
| 20260506161437 | 14 | 158 | 3.2 | 3.2 | 0.18 | 0.79 | 0.79 | 99 | 1008.7 |
| 20260506160437 | 15 | 152 | 3.2 | 3.2 | 0.00 | 0.76 | 0.76 | 99 | 1008.5 |
| 20260506155433 | 15 | 194 | 4.8 | 4.8 | 0.43 | 0.76 | 0.76 | 99 | 1008.7 |
| 20260506153604 | 15 | 187 | 4.8 | 4.8 | 0.61 | 0.66 | 0.66 | 99 | 1009.1 |
| 20260506152604 | 15 | 176 | 4.8 | 9.7 | 0.13 | 0.56 | 0.56 | 99 | 1009.5 |
| 20260506151600 | 15 | 186 | 1.6 | 3.2 | 0.36 | 0.53 | 0.53 | 99 | 1009.4 |
| 20260506150559 | 15 | 156 | 4.8 | 8.0 | 0.30 | 0.48 | 0.48 | 99 | 1009.3 |
| 20260506145559 | 15 | 225 | 3.2 | 4.8 | 0.00 | 0.43 | 0.43 | 99 | 1009.1 |
| 20260506144559 | 15 | 177 | 1.6 | 3.2 | 0.13 | 0.43 | 0.43 | 99 | 1009.2 |
| 20260506143554 | 15 | 181 | 1.6 | 3.2 | 0.30 | 0.41 | 0.41 | 99 | 1009.3 |
| 20260506142549 | 15 | 189 | 3.2 | 3.2 | 0.30 | 0.36 | 0.36 | 99 | 1009.4 |
| 20260506141545 | 15 | 175 | 0.0 | 1.6 | 0.30 | 0.30 | 0.30 | 99 | 1009.3 |
| 20260506140540 | 15 | 165 | 1.6 | 3.2 | 0.30 | 0.25 | 0.25 | 99 | 1009.5 |
| 20260506135540 | 15 | 186 | 1.6 | 1.6 | 0.30 | 0.23 | 0.23 | 99 | 1009.5 |
| 20260506134539 | 15 | 167 | 0.0 | 1.6 | 0.18 | 0.18 | 0.18 | 99 | 1009.7 |
| 20260506133538 | 15 | 173 | 0.0 | 1.6 | 0.30 | 0.15 | 0.15 | 99 | 1009.8 |
| 20260506132538 | 15 | 159 | 0.0 | 1.6 | 0.30 | 0.13 | 0.13 | 98 | 1009.5 |
| 20260506131538 | 15 | 175 | 3.2 | 4.8 | 0.18 | 0.08 | 0.08 | 97 | 1009.8 |
| 20260506130537 | 15 | 172 | 1.6 | 1.6 | 0.00 | 0.05 | 0.05 | 96 | 1010.0 |
| 20260506125533 | 16 | 181 | 1.6 | 1.6 | 0.13 | 0.05 | 0.05 | 95 | 1009.9 |
| 20260506124528 | 16 | 161 | 1.6 | 1.6 | 0.18 | 0.03 | 0.03 | 93 | 1009.7 |
| 20260506123523 | 16 | 159 | 0.0 | 1.6 | 0.00 | 0.00 | 0.00 | 91 | 1009.5 |
| 20260506122523 | 16 | 182 | 0.0 | 1.6 | 0.00 | 0.00 | 0.00 | 91 | 1009.5 |
| 20260506121519 | 16 | 172 | 0.0 | 0.0 | 0.00 | 0.00 | 0.00 | 92 | 1009.2 |
| 20260506120519 | 16 | 165 | 0.0 | 0.0 | 0.00 | 0.00 | 0.00 | 91 | 1009.4 |
| 20260506115519 | 16 | 202 | 1.6 | 3.2 | 0.00 | 0.00 | 0.00 | 88 | 1009.5 |
| 20260506114515 | 16 | 187 | 4.8 | 4.8 | 0.00 | 0.00 | 0.00 | 86 | 1009.6 |
| 20260506113511 | 17 | 197 | 1.6 | 3.2 | 0.00 | 0.00 | 0.00 | 84 | 1009.6 |
| 20260506112510 | 17 | 124 | 1.6 | 1.6 | 0.00 | 0.00 | 0.00 | 83 | 1009.5 |
| 20260506111506 | 17 | 176 | 0.0 | 0.0 | 0.00 | 0.00 | 0.00 | 83 | 1009.4 |
| 20260506110506 | 17 | 188 | 3.2 | 4.8 | 0.00 | 0.00 | 0.00 | 82 | 1009.5 |
| 20260506105504 | 17 | 141 | 1.6 | 3.2 | 0.00 | 0.00 | 0.00 | 82 | 1009.4 |
| 20260506104500 | 16 | 165 | 1.6 | 1.6 | 0.00 | 0.00 | 0.00 | 82 | 1009.2 |
| 20260506103500 | 16 | 180 | 1.6 | 1.6 | 0.00 | 0.00 | 0.00 | 82 | 1009.2 |
| 20260506102455 | 16 | 179 | 3.2 | 3.2 | 0.00 | 0.00 | 0.00 | 81 | 1009.1 |
| 20260506101455 | 16 | 159 | 0.0 | 0.0 | 0.00 | 0.00 | 0.00 | 81 | 1009.0 |
| 20260506100451 | 16 | 165 | 1.6 | 1.6 | 0.00 | 0.00 | 0.00 | 80 | 1008.8 |
| 20260506095447 | 16 | 164 | 0.0 | 1.6 | 0.00 | 0.00 | 0.00 | 80 | 1009.1 |
| 20260506094447 | 16 | 157 | 0.0 | 1.6 | 0.00 | 0.00 | 0.00 | 78 | 1009.0 |
| 20260506093442 | 16 | 150 | 0.0 | 0.0 | 0.00 | 0.00 | 0.00 | 79 | 1008.9 |
| 20260506092437 | 15 | 153 | 0.0 | 0.0 | 0.00 | 0.00 | 0.00 | 80 | 1008.9 |
| 20260506091432 | 15 | 121 | 0.0 | 0.0 | 0.00 | 0.00 | 0.00 | 79 | 1009.2 |
| 20260506090432 | 15 | 139 | 0.0 | 0.0 | 0.00 | 0.00 | 0.00 | 79 | 1008.8 |
| 20260506085432 | 15 | 161 | 0.0 | 0.0 | 0.00 | 0.00 | 0.00 | 79 | 1009.2 |
| 20260506084431 | 15 | 165 | 0.0 | 0.0 | 0.00 | 0.00 | 0.00 | 81 | 1009.0 |
| 20260506083430 | 15 | 124 | 0.0 | 0.0 | 0.00 | 0.00 | 0.00 | 81 | 1009.2 |
| 20260506082430 | 15 | 123 | 0.0 | 0.0 | 0.00 | 0.00 | 0.00 | 81 | 1009.2 |
| 20260506081430 | 15 | 119 | 1.6 | 1.6 | 0.00 | 0.00 | 0.00 | 79 | 1009.2 |
| 20260506080430 | 15 | 9 | 1.6 | 1.6 | 0.00 | 0.00 | 0.00 | 80 | 1009.2 |
| 20260506073420 | 16 | 142 | 0.0 | 0.0 | 0.00 | 0.00 | 0.00 | 75 | 1009.3 |
| 20260506072419 | 15 | 171 | 0.0 | 0.0 | 0.00 | 0.00 | 0.00 | 74 | 1009.4 |
| 20260506071415 | 15 | 163 | 0.0 | 0.0 | 0.00 | 0.00 | 0.00 | 74 | 1009.6 |
| 20260506070415 | 15 | 186 | 0.0 | 0.0 | 0.00 | 0.00 | 0.00 | 74 | 1009.4 |
| 20260506062358 | 17 | 183 | 0.0 | 0.0 | 0.00 | 0.00 | 0.00 | 66 | 1009.9 |
| 20260506061356 | 17 | 183 | 0.0 | 0.0 | 0.00 | 0.00 | 0.00 | 66 | 1010.2 |
| 20260506060352 | 17 | 192 | 3.2 | 3.2 | 0.00 | 0.00 | 0.00 | 66 | 1010.1 |
| 20260506051342 | 16 | 171 | 0.0 | 0.0 | 0.00 | 0.00 | 0.00 | 69 | 1010.4 |
| 20260506050336 | 16 | 171 | 0.0 | 0.0 | 0.00 | 0.00 | 0.00 | 70 | 1010.2 |
| 20260506044337 | 16 | 184 | 1.6 | 3.2 | 0.00 | 0.00 | 0.00 | 67 | 1010.5 |
| 20260506043336 | 17 | 184 | 0.0 | 0.0 | 0.00 | 0.00 | 0.00 | 66 | 1010.4 |
| 20260506042333 | 17 | 176 | 0.0 | 0.0 | 0.00 | 0.00 | 0.00 | 64 | 1010.4 |
| 20260506041328 | 17 | 199 | 0.0 | 0.0 | 0.00 | 0.00 | 0.00 | 63 | 1010.6 |
| 20260506040323 | 17 | 191 | 0.0 | 1.6 | 0.00 | 0.00 | 0.00 | 63 | 1010.5 |
| 20260506035322 | 17 | 186 | 0.0 | 1.6 | 0.00 | 0.08 | 0.08 | 63 | 1010.4 |
| 20260506034322 | 18 | 188 | 0.0 | 0.0 | 0.00 | 0.08 | 0.08 | 62 | 1010.5 |
| 20260506033322 | 18 | 189 | 0.0 | 0.0 | 0.00 | 0.08 | 0.08 | 60 | 1010.5 |
| 20260506032321 | 18 | 175 | 0.0 | 0.0 | 0.00 | 0.08 | 0.08 | 59 | 1010.3 |
| 20260506031321 | 18 | 161 | 0.0 | 0.0 | 0.00 | 0.08 | 0.08 | 59 | 1010.4 |
| 20260506030317 | 19 | 249 | 1.6 | 1.6 | 0.00 | 0.08 | 0.08 | 58 | 1010.2 |
| 20260506025315 | 20 | 162 | 1.6 | 1.6 | 0.00 | 0.08 | 0.08 | 56 | 1010.4 |
| 20260506024315 | 20 | 176 | 0.0 | 1.6 | 0.00 | 0.08 | 0.08 | 55 | 1010.3 |
| 20260506023314 | 20 | 189 | 1.6 | 1.6 | 0.00 | 0.08 | 0.08 | 54 | 1010.5 |
| 20260506022314 | 21 | 180 | 1.6 | 1.6 | 0.00 | 0.08 | 0.08 | 53 | 1010.4 |
| 20260506021309 | 20 | 191 | 3.2 | 3.2 | 0.00 | 0.08 | 0.08 | 54 | 1010.6 |
| 20260506020309 | 21 | 187 | 4.8 | 4.8 | 0.00 | 0.08 | 0.08 | 52 | 1010.5 |
| 20260506015306 | 21 | 186 | 4.8 | 8.0 | 0.00 | 0.08 | 0.08 | 52 | 1010.4 |
| 20260506014303 | 21 | 174 | 3.2 | 3.2 | 0.00 | 0.08 | 0.08 | 52 | 1010.1 |
| 20260506013302 | 21 | 178 | 3.2 | 4.8 | 0.00 | 0.08 | 0.08 | 52 | 1010.0 |
| 20260506012306 | 21 | 163 | 1.6 | 1.6 | 0.00 | 0.08 | 0.08 | 51 | 1009.9 |
| 20260506011301 | 21 | 173 | 1.6 | 1.6 | 0.00 | 0.08 | 0.08 | 51 | 1009.6 |
| 20260506010257 | 21 | 176 | 3.2 | 3.2 | 0.00 | 0.08 | 0.08 | 51 | 1009.6 |
| 20260506005256 | 21 | 180 | 1.6 | 3.2 | 0.00 | 0.08 | 0.08 | 50 | 1009.4 |
| 20260506004256 | 22 | 172 | 1.6 | 3.2 | 0.00 | 0.08 | 0.08 | 49 | 1009.5 |
| 20260506003254 | 22 | 166 | 6.4 | 8.0 | 0.00 | 0.08 | 0.08 | 48 | 1009.4 |
| 20260506002253 | 22 | 170 | 4.8 | 8.0 | 0.00 | 0.08 | 0.08 | 47 | 1009.3 |
| 20260506001252 | 22 | 165 | 4.8 | 4.8 | 0.00 | 0.08 | 0.08 | 47 | 1009.1 |
| 20260506000252 | 23 | 192 | 1.6 | 3.2 | 0.00 | 0.08 | 0.08 | 46 | 1009.2 |
| 20260505235252 | 23 | 211 | 3.2 | 8.0 | 0.00 | 0.08 | 0.08 | 46 | 1009.1 |
| 20260505234252 | 23 | 199 | 1.6 | 3.2 | 0.00 | 0.08 | 0.08 | 45 | 1008.9 |
| 20260505233247 | 23 | 186 | 4.8 | 4.8 | 0.00 | 0.08 | 0.08 | 44 | 1008.9 |
| 20260505232247 | 23 | 197 | 4.8 | 8.0 | 0.00 | 0.08 | 0.08 | 45 | 1008.8 |
| 20260505231242 | 23 | 139 | 3.2 | 4.8 | 0.00 | 0.08 | 0.08 | 45 | 1008.9 |
| 20260505230242 | 23 | 159 | 3.2 | 4.8 | 0.00 | 0.08 | 0.08 | 44 | 1008.7 |
| 20260505225242 | 23 | 174 | 1.6 | 3.2 | 0.00 | 0.08 | 0.08 | 45 | 1008.5 |
| 20260505224241 | 23 | 203 | 1.6 | 4.8 | 0.00 | 0.08 | 0.08 | 45 | 1008.4 |
| 20260505223240 | 23 | 186 | 6.4 | 8.0 | 0.00 | 0.08 | 0.08 | 45 | 1008.5 |
| 20260505222239 | 24 | 186 | 1.6 | 1.6 | 0.00 | 0.08 | 0.08 | 44 | 1008.5 |
| 20260505221238 | 24 | 186 | 1.6 | 3.2 | 0.00 | 0.08 | 0.08 | 44 | 1008.4 |
| 20260505220233 | 24 | 199 | 4.8 | 4.8 | 0.00 | 0.08 | 0.08 | 43 | 1008.2 |
| 20260505215228 | 24 | 209 | 8.0 | 11.3 | 0.00 | 0.08 | 0.08 | 43 | 1008.3 |
| 20260505214223 | 24 | 199 | 4.8 | 4.8 | 0.00 | 0.08 | 0.08 | 43 | 1008.4 |
| 20260505213218 | 25 | 182 | 4.8 | 4.8 | 0.00 | 0.08 | 0.08 | 44 | 1008.3 |
| 20260505212217 | 25 | 180 | 4.8 | 8.0 | 0.00 | 0.08 | 0.08 | 42 | 1008.2 |
| 20260505211217 | 25 | 163 | 6.4 | 9.7 | 0.00 | 0.08 | 0.08 | 43 | 1007.9 |
| 20260505210216 | 25 | 206 | 8.0 | 9.7 | 0.00 | 0.08 | 0.08 | 43 | 1008.0 |
| 20260505205212 | 25 | 197 | 6.4 | 8.0 | 0.00 | 0.08 | 0.08 | 43 | 1008.1 |
| 20260505204212 | 25 | 203 | 4.8 | 8.0 | 0.00 | 0.08 | 0.08 | 43 | 1008.2 |
| 20260505203212 | 25 | 168 | 4.8 | 8.0 | 0.00 | 0.08 | 0.08 | 44 | 1008.1 |
| 20260505202209 | 26 | 181 | 3.2 | 4.8 | 0.00 | 0.08 | 0.08 | 40 | 1008.0 |
| 20260505201204 | 26 | 192 | 6.4 | 9.7 | 0.00 | 0.08 | 0.08 | 36 | 1008.0 |
| 20260505200204 | 26 | 141 | 6.4 | 11.3 | 0.00 | 0.08 | 0.08 | 38 | 1008.0 |
| 20260505195203 | 26 | 229 | 8.0 | 11.3 | 0.00 | 0.08 | 0.08 | 37 | 1008.4 |
| 20260505194202 | 26 | 144 | 6.4 | 11.3 | 0.00 | 0.08 | 0.08 | 37 | 1008.4 |
| 20260505193202 | 26 | 199 | 11.3 | 17.7 | 0.00 | 0.08 | 0.08 | 36 | 1008.5 |